Troy, AL

6:08 AM CST on December 17, 2017 (GMT -0600)
Troy Municipal

Weather History for KTOI - January, 2014

Change the Weather History Date:

Saturday, January 25, 2014

  Actual Average Record
Temperature  
Mean Temperature 41 °F 47 °F  
Max Temperature 60 °F 59 °F 77 °F (2012)
Min Temperature 21 °F 35 °F 21 °F (2003)
Degree Days  
Heating Degree Days 24 18  
Month to date heating degree days 592 470  
Since 1 July heating degree days 1373 1387  
Moisture  
Dew Point 21 °F    
Average Humidity 54    
Maximum Humidity 84    
Minimum Humidity 24    
Precipitation  
Precipitation T in 0.16 in 0.49 in (2004)
Month to date precipitation 2.54 3.56  
Year to date precipitation 2.54 3.56  
Snow  
Snow 0.00 in - - ()
Month to date snowfall 0.0  
Since 1 July snowfall 0.0  
Snow Depth 0.00 in    
Sea Level Pressure  
Sea Level Pressure 30.12 in    
Wind  
Wind Speed 5 mph (SW)    
Max Wind Speed 21 mph    
Max Gust Speed 29 mph    
Visibility 10 miles    
Events Rain    
T = Trace of Precipitation, MM = Missing Value Source: NWS Daily Summary

Daily Weather History Graph

Daily Weather History Graph

Search for Another Location

Airport or City:

Trip Planner

Search our weather history database for the weather conditions in past years. The results will help you decide how hot, cold, wet, or windy it might be!

Date:

Astronomy

Jan. 25, 2014 Rise Set
Actual Time 6:41 AM CST 5:11 PM CST
Civil Twilight 6:15 AM CST 5:37 PM CST
Nautical Twilight 5:45 AM CST 6:07 PM CST
Astronomical Twilight 5:16 AM CST 6:36 PM CST
Moon 1:14 AM CST (1/25) 12:11 PM CST (1/25)
Length of Visible Light 11h 22m
Length of Day
10h 30m
Waning Crescent, 34% of the Moon is Illuminated
Jan 25
Waning Crescent
Jan 30
New
Feb 6
First Quarter
Feb 14
Full
Feb 22
Last Quarter

Hourly Weather History & Observations

Time (CST) Temp. Windchill Dew Point Humidity Pressure Visibility Wind Dir Wind Speed Gust Speed Precip Events Conditions
12:41 AM 26.1 °F - 12.0 °F 55% 30.29 in 10.0 mi Calm Calm - N/A   Mostly Cloudy
12:53 AM 23.0 °F - 16.0 °F 74% 30.29 in 10.0 mi Calm Calm - N/A   Mostly Cloudy
1:06 AM 24.1 °F 19.7 °F 15.1 °F 69% 30.26 in 10.0 mi SSE 3.5 mph - N/A   Scattered Clouds
1:53 AM 24.1 °F - 15.1 °F 69% 30.25 in 10.0 mi Calm Calm - N/A   Clear
2:53 AM 21.9 °F - 15.1 °F 75% 30.24 in 10.0 mi Calm Calm - N/A   Clear
3:38 AM 23.0 °F - 16.0 °F 74% 30.22 in 10.0 mi Calm Calm - N/A   Mostly Cloudy
3:53 AM 23.0 °F - 18.0 °F 81% 30.22 in 10.0 mi Calm Calm - N/A   Overcast
4:53 AM 26.1 °F - 17.1 °F 69% 30.21 in 10.0 mi Calm Calm - N/A   Overcast
5:29 AM 24.1 °F - 17.1 °F 75% 30.17 in 10.0 mi Calm Calm - N/A   Scattered Clouds
5:53 AM 24.1 °F - 17.1 °F 75% 30.19 in 10.0 mi Calm Calm - N/A   Clear
6:48 AM 21.2 °F - 15.8 °F 80% 30.18 in 10.0 mi Calm Calm - N/A   Mostly Cloudy
6:53 AM 21.9 °F - 17.1 °F 82% 30.19 in 10.0 mi Calm Calm - N/A   Mostly Cloudy
7:53 AM 26.1 °F - 17.1 °F 69% 30.19 in 10.0 mi Calm Calm - N/A   Overcast
8:53 AM 36.0 °F 27.1 °F 25.0 °F 64% 30.18 in 10.0 mi WSW 13.8 mph 18.4 mph 0.00 in Rain Light Rain
9:12 AM 37.0 °F 28.9 °F 26.1 °F 65% 30.16 in 10.0 mi SW 12.7 mph - 0.00 in Rain Light Rain
9:53 AM 39.9 °F 33.4 °F 26.1 °F 58% 30.16 in 10.0 mi SW 10.4 mph - 0.00 in Rain Light Rain
10:53 AM 46.9 °F - 23.0 °F 39% 30.12 in 10.0 mi SW 10.4 mph - 0.00 in   Clear
11:53 AM 53.1 °F - 21.9 °F 30% 30.06 in 10.0 mi SW 12.7 mph 23.0 mph N/A   Clear
12:53 PM 55.9 °F - 25.0 °F 30% 30.01 in 10.0 mi SW 18.4 mph 28.8 mph N/A   Clear
1:53 PM 57.9 °F - 24.1 °F 27% 29.97 in 10.0 mi WSW 18.4 mph 26.5 mph N/A   Clear
2:53 PM 59.0 °F - 23.0 °F 25% 29.96 in 10.0 mi WSW 12.7 mph 25.3 mph N/A   Clear
3:53 PM 59.0 °F - 24.1 °F 26% 29.96 in 10.0 mi West 12.7 mph - N/A   Clear
4:53 PM 57.0 °F - 23.0 °F 27% 29.97 in 10.0 mi West 11.5 mph - N/A   Clear
5:53 PM 53.1 °F - 24.1 °F 32% 29.99 in 10.0 mi West 4.6 mph - N/A   Clear
6:53 PM 45.0 °F - 26.1 °F 48% 30.01 in 10.0 mi Calm Calm - N/A   Clear
7:53 PM 39.9 °F - 26.1 °F 58% 30.03 in 10.0 mi Calm Calm - N/A   Clear
8:53 PM 37.9 °F - 27.0 °F 65% 30.04 in 10.0 mi Calm Calm - N/A   Clear
9:53 PM 35.1 °F - 27.0 °F 72% 30.06 in 10.0 mi Calm Calm - N/A   Clear
10:53 PM 32.0 °F - 25.0 °F 75% 30.06 in 10.0 mi Calm Calm - N/A   Clear
11:53 PM 32.0 °F - 26.1 °F 79% 30.04 in 10.0 mi Calm Calm - N/A   Clear